FENGYUN 2F 1 38049U 12002A 12039.60809493 -.00000360 00000-0 10000-3 0 257 2 38049 2.3527 277.8000 0006256 265.9370 285.5480 1.00273389 320 CZ-3A R/B 1 38050U 12002B 12038.29747495 .00000346 00000-0 94624-3 0 174 2 38050 24.4051 106.7429 7237497 196.8343 112.5456 2.27058555 560 WGS F4 (USA 233) 1 38070U 12003A 12038.51448899 -.00000011 00000-0 10000-3 0 297 2 38070 0.1606 274.2019 1055844 209.7480 75.7300 1.00259804 141 DELTA 4 R/B 1 38071U 12003B 12038.68910053 -.00000358 00000-0 -65268-4 0 159 2 38071 23.7619 306.6459 8219936 183.3656 160.6812 1.15034866 213 PROGRESS-M 14M 1 38073U 12004A 12038.60655328 .00017151 00000-0 22242-3 0 257 2 38073 51.6417 57.0488 0020232 18.0835 78.6761 15.58738490 1986 NAVID 1 38075U 12005A 12039.80949109 .00141757 17239-4 54205-3 0 212 2 38075 56.0231 9.6153 0071476 144.4427 307.8900 15.83196056 929 SAFIR 2 R/B 1 38076U 12005B 12039.91397612 .00173039 20785-4 58904-3 0 174 2 38076 56.0162 9.0567 0075434 140.9506 219.7017 15.84893608 943